Location: Capelle
(50.3413°N, 1.9974°E)
Time: 00:06:11
(UTC+00:00)

Resurs 01 Rocket - Pass Details

Date: 12 January 2026
Orbit: 627 x 635 km, 97.7° (Epoch: 9 February)

Event Time Altitude Azimuth Distance (km) Brightness Sun altitude
Exits shadow 18:53:17 58° 181° (S) 734 1.8 -24.7°
Maximum altitude 18:54:06 81° 257° (WSW) 642 1.6 -24.9°
Drops below altitude 10° 18:58:30 10° 345° (NNW) 2,017 4.3 -25.6°
Sets 19:00:43 0° 346° (NNW) 2,930 5.2 -25.9°
